Location: Treviso
(45.6669°N, 12.2430°E)
Time: 10:30:26
(UTC+01:00)

ISS - Pass Details

Date: 27 March 2023
Orbit: 414 x 423 km, 51.6° (Epoch: 20 March)

Event Time Altitude Azimuth Distance (km) Brightness Sun altitude
Rises 22:06:56 0° 298° (WNW) 2,359 1.4 -26.0°
Reaches altitude 10° 22:09:02 10° 296° (WNW) 1,492 0.0 -26.3°
Enters shadow 22:10:34 25° 294° (WNW) 886 -1.5 -26.5°
